Vilalleons





Hora UTC 03:15
Temperatura 7.1 ºC
Humitat 95.0 %
Pressió 1018.7 hPa
Pluja 0.0 mm
Velocitat vent 3.2 km/h
Direcció vent SE

Dades diàries 2020-09-29



Hora UTC (hivern +1h; estiu +2h)
Temperatura (ºC) Humitat (%) Pressió (hPa) Velocitat vent (km/h) Precipitació (mm)
Hora UTC Aire Humitat Pressió Vel. Dir. Vel. Max Dir. Intent. màx 5 min.
00:00 8.4 94.0 1019.1 1.6 SE 1.6 0.0
00:05 8.4 94.0 1019.2 0.0 SE 3.2 0.0
00:10 8.3 94.0 1019.3 0.0 SE 3.2 0.0
00:15 8.3 94.0 1019.1 1.6 SE 3.2 0.0
00:20 8.3 94.0 1019.0 1.6 SE 3.2 0.0
00:25 8.2 94.0 1019.1 3.2 SE 3.2 0.0
00:30 8.2 95.0 1019.1 3.2 SE 3.2 0.0
00:35 8.2 95.0 1019.0 1.6 SE 3.2 0.0
00:40 8.2 94.0 1019.0 3.2 SE 3.2 0.0
00:45 8.2 95.0 1019.0 1.6 SE 3.2 0.0
00:50 8.2 95.0 1019.0 1.6 SE 3.2 0.0
00:55 8.2 95.0 1018.9 1.6 SE 3.2 0.0
01:00 8.2 95.0 1018.9 1.6 SE 3.2 0.0
01:05 8.1 95.0 1018.8 1.6 SE 3.2 0.0
01:10 8.1 95.0 1018.7 0.0 SE 3.2 0.0
01:15 8.2 95.0 1019.0 1.6 SE 1.6 0.0
01:20 8.1 95.0 1018.9 1.6 SE 3.2 0.0
01:25 8.1 95.0 1018.9 1.6 SE 3.2 0.0
01:30 8.1 95.0 1018.7 1.6 SE 3.2 0.0
01:35 8.0 95.0 1018.8 1.6 SE 3.2 0.0
01:40 7.9 95.0 1019.0 1.6 SE 3.2 0.0
01:45 7.9 95.0 1018.8 3.2 SE 3.2 0.0
01:50 7.9 95.0 1018.8 1.6 SE 3.2 0.0
01:55 7.9 95.0 1018.7 1.6 SE 3.2 0.0
02:00 7.9 95.0 1018.8 1.6 SE 3.2 0.0
02:10 7.8 95.0 1018.8 0.0 SE 3.2 0.0
02:15 7.7 95.0 1019.0 1.6 SE 3.2 0.0
02:20 7.7 95.0 1018.9 1.6 SE 3.2 0.0
02:25 7.7 95.0 1018.8 1.6 SE 3.2 0.0
02:30 7.6 95.0 1018.7 3.2 SE 3.2 0.0
02:35 7.6 95.0 1018.7 1.6 SE 3.2 0.0
02:40 7.6 95.0 1018.7 0.0 SE 3.2 0.0
02:45 7.4 95.0 1018.6 1.6 SE 3.2 0.0
02:50 7.4 95.0 1018.7 3.2 SE 3.2 0.0
02:55 7.3 95.0 1018.6 1.6 SE 3.2 0.0
03:00 7.2 95.0 1018.5 0.0 SE 3.2 0.0
03:05 7.2 95.0 1018.7 1.6 SE 3.2 0.0
03:10 7.2 95.0 1018.6 1.6 SE 3.2 0.0
03:15 7.1 95.0 1018.7 3.2 SE 3.2 0.0
Màxima 9.4 95.0 1019.3 3.2 SE 3.2 0.0
Mínima 7.1 94.0 1018.5
Total 0.0